Home   Weather   Toruń   Past weeks

Flag for Poland Past Weather in Toruń, Poland — Yesterday and Last 2 Weeks

Now
37 °F

Passing clouds.


Feels Like: 37 °F
Forecast: 39 / 44 °F
Wind: 2 mph from Southwest

Location: Torun

Current Time: Feb 22, 2017 at 5:02:00 am

Latest Report: Feb 22, 2017 at 4:00 am


Visibility: 11 mi

Pressure: 29.72 "Hg

Humidity: 83%

Dew Point: 33 °F

Location of ToruńLocation

Past Weather in Toruń — Graph

°F

Toruń Temperature Yesterday

Maximum temperature yesterday: 47 °F (at 3:00 am)
Minimum temperature yesterday: 41 °F (at 11:00 pm)
Average temperature yesterday: 44 °F

High & Low Weather Summary for the Past Weeks

 TemperatureHumidityPressure
High48 °F (Feb 16, 3:00 pm)100% (Feb 17, 5:00 am)30.75 "Hg (Feb 17, 5:00 am)
Low14 °F (Feb 11, 7:00 am)39% (Feb 10, 2:00 pm)29.47 "Hg (Feb 21, 1:00 am)
Average29 °F80%30.35 "Hg
* Reported Feb 7 3:00 am — Feb 22 3:00 am, Toruń, Weather by CustomWeather, © 2017

Note: Actual official high and low records may vary slightly from our data, if they occured in-between our weather recording intervals... More about our weather records

Advertising

Toruń Weather History for the Previous 24 Hours

Scroll right to see more
 ConditionsComfort  
Time TempWeatherWind HumidityBarometerVisibility
3:00 am
Wed, Feb 22
39 °FPassing clouds.2 mph81%29.74 "Hg13 mi
2:00 am40 °FPassing clouds.2 mph77%29.75 "Hg14 mi
1:00 am41 °FOvercast.3 mph75%29.75 "Hg13 mi
12:00 am40 °FPassing clouds.5 mph78%29.73 "Hg10 mi
11:00 pm
Tue, Feb 21
41 °FPassing clouds.5 mph75%29.71 "Hg9 mi
10:00 pm41 °FPassing clouds.3 mph72%29.70 "Hg9 mi
9:00 pm42 °FPassing clouds.3 mph70%29.68 "Hg10 mi
8:00 pm42 °FPassing clouds.5 mph69%29.66 "Hg10 mi
7:00 pm42 °FOvercast.5 mph72%29.63 "Hg10 mi
6:00 pm42 °FOvercast.5 mph63%29.62 "Hg14 mi
5:00 pm43 °FOvercast.3 mph65%29.60 "Hg12 mi
4:00 pm45 °FSprinkles. Overcast.5 mph62%29.59 "Hg8 mi
3:00 pm47 °FPassing clouds.7 mph55%29.56 "Hg14 mi
2:00 pm46 °FPartly sunny.5 mph58%29.55 "Hg14 mi
1:00 pm47 °FOvercast.5 mph59%29.54 "Hg17 mi
12:00 pm47 °FOvercast.5 mph60%29.55 "Hg19 mi
11:00 am45 °FOvercast.7 mph72%29.54 "Hg9 mi
10:00 am45 °FOvercast.5 mph75%29.54 "Hg22 mi
9:00 am44 °FOvercast.5 mph77%29.54 "Hg17 mi
8:00 am43 °FOvercast.5 mph81%29.54 "Hg18 mi
7:00 am43 °FOvercast.5 mph84%29.53 "Hg31 mi
6:00 am44 °FOvercast.6 mph89%29.50 "Hg10 mi
5:00 am45 °FOvercast.3 mph85%29.47 "Hg31 mi
Weather by CustomWeather, © 2017

See weather overviewHow to use our weather pages